Regional Weather Roundup
Issued by NWS

Home | Current Version | Previous Version | Graphics & Text | Print | Product List | Glossary On
Versions: 1 2 3 4 5 6 7 8 9 10 11 12 13 14 15 16 17 18 19 20 21 22 23 24 25 26 27 28 29 30 31 32 33 34 35 36 37 38 39 40 41 42 43 44 45 46 47 48 49 50
000
ASUS43 KFSD 021602
RWRSD

WEATHER ROUNDUP FOR SOUTH DAKOTA
NATIONAL WEATHER SERVICE SIOUX FALLS SD
1100 AM CDT THU JUL 02 2015

NOTE: "FAIR" INDICATES FEW OR NO CLOUDS BELOW 12,000 FEET WITH NO
SIGNIFICANT WEATHER AND/OR OBSTRUCTIONS TO VISIBILITY.


SDZ001>005-009-010-012>017-021700-
NORTHWEST AND NORTH CENTRAL SOUTH DAKOTA

CITY           SKY/WX    TMP DP  RH WIND       PRES   REMARKS
BUFFALO          N/A     73  59  61 NW15      30.04R
FAITH            N/A     73  62  68 N12       30.05S
MOBRIDGE       MOSUNNY   71  67  87 W8        29.97F
$$

SDZ012>016-024>037-041>051-057-063-072>074-021700-
SOUTHWEST AND SOUTH CENTRAL SOUTH DAKOTA

CITY           SKY/WX    TMP DP  RH WIND       PRES   REMARKS
RAPID CTY ARPT SUNNY     74  61  63 N18G29    30.10R
PIERRE         MOSUNNY   69  64  84 NW8       29.99S
CUSTER         MOSUNNY   69  49  48 N14       30.21S
ELLSWORTH AFB  MOSUNNY   74  61  64 N20       30.10R
PHILIP         PTSUNNY   75  65  70 N12       30.03R
PINE RIDGE     PTSUNNY   71  63  75 NW8       30.09S
WINNER         LGT RAIN  68  63  84 N6        29.99S
$$

SDZ004>011-016>023-039-040-021700-
NORTHEAST SOUTH DAKOTA

CITY           SKY/WX    TMP DP  RH WIND       PRES   REMARKS
ABERDEEN       RAIN      61  59  93 CALM      30.01R FOG
WATERTOWN      PTSUNNY   68  50  52 SE7       30.00S
BROOKINGS      CLOUDY    64  48  55 S10       30.03R
SISSETON         N/A     69  53  56 S9        29.99F
$$

SDZ017-020-022-023-036>040-048>070-021700-
SOUTHEAST SOUTH DAKOTA

CITY           SKY/WX    TMP DP  RH WIND       PRES   REMARKS
SIOUX FALLS    CLOUDY    65  57  75 SE8       30.00S
HURON          LGT RAIN  63  58  83 SE9       29.98S
MITCHELL       LGT RAIN  64  60  87 E6        29.99R
YANKTON        CLOUDY    59  55  88 CALM      29.98R
$$

ABBREVIATIONS USED IN REMARKS
   TC - TEMPERATURE IN CELSIUS
  WCI - WIND CHILL INDEX
   HX - HEAT INDEX
  VSB - VISIBILITY




USA.gov is the U.S. government's official web portal to all federal, state and local government web resources and services.